Location: Newark
(37.9000°S, 166.5167°W)
Time: 18:13:35
(UTC+00:00)

ISS - Visible Passes

Search period start: 27 January 2020 00:00
Search period end: 06 February 2020 00:00
Orbit: 416 x 423 km, 51.6° (Epoch: 28 January)

Date Brightness Start Highest point End Pass type
(mag) Time Alt. Az. Time Alt. Az. Time Alt. Az.
27 Jan -2.2 14:16:27 25° NE 14:16:40 25° NE 14:19:31 10° ESE visible
28 Jan -0.8 13:30:54 11° E 13:30:54 11° E 13:31:15 10° E visible
28 Jan -3.3 15:03:52 22° WNW 15:05:48 54° SW 15:09:09 10° SE visible
29 Jan -3.9 14:18:15 85° NNE 14:18:16 85° NE 14:21:41 10° SE visible
30 Jan -1.5 13:32:35 23° ESE 13:32:35 23° ESE 13:34:04 10° ESE visible
30 Jan -1.8 15:05:33 13° WSW 15:07:46 22° SSW 15:10:32 10° SSE visible
31 Jan -2.5 14:19:49 32° SW 14:20:05 33° SSW 14:23:13 10° SE visible
01 Feb -1.6 13:34:03 27° SSE 13:34:03 27° SSE 13:35:49 10° SE visible
01 Feb -1.0 15:08:17 10° SW 15:09:54 13° SSW 15:11:31 10° S visible
02 Feb -0.3 12:48:15 10° SE 12:48:15 10° SE 12:48:19 10° SE visible
02 Feb -1.4 14:21:11 15° SW 14:22:06 16° SSW 14:24:22 10° SSE visible
03 Feb -1.2 13:35:21 20° S 13:35:21 20° S 13:37:06 10° SSE visible
04 Feb -0.3 12:49:30 12° SSE 12:49:30 12° SSE 12:49:45 10° SE visible
04 Feb -0.7 14:23:39 10° SSW 14:24:17 10° SSW 14:24:54 10° S visible
05 Feb -0.8 13:36:33 13° SSW 13:36:33 13° SSW 13:38:01 10° S visible
